EW2235 Weather Reports


Display with metric or nautical units.
time (UTC)temp
F
wind
direction
speed
MPH
gust
MPH
rain 1hr
in
rain 24hr
in
rain mn
in
humidity
%
barometer
mb
20260903040858 56 333 0.0 2.0 0.00 0.45 0.45 92 1009.7
20260903040337 56 330 0.0 2.0 0.00 0.45 0.45 92 1009.6
20260903035826 56 4 0.0 1.0 0.00 0.45 0.45 92 1009.5
20260903035324 56 121 0.0 2.0 0.00 0.45 0.45 92 1009.4
20260903034827 56 223 0.0 2.0 0.00 0.45 0.45 92 1009.3
20260903034333 56 311 0.0 1.0 0.00 0.45 0.45 92 1009.2
20260903033816 57 13 0.0 3.0 0.00 0.45 0.45 92 1009.1
20260903033315 57 356 0.0 5.0 0.00 0.45 0.45 92 1009.0
20260903032826 57 155 1.0 6.0 0.00 0.45 0.45 92 1008.9
20260903032325 57 203 1.0 6.0 0.00 0.45 0.45 92 1008.9
20260903031827 57 77 0.0 4.0 0.00 0.45 0.45 92 1008.8
20260903031335 57 61 0.0 6.0 0.00 0.45 0.45 92 1008.9
20260903030843 57 221 0.0 6.0 0.00 0.45 0.45 92 1008.9
20260903030342 58 116 0.0 3.0 0.00 0.45 0.45 92 1008.8
20260903025846 58 191 0.0 2.0 0.00 0.45 0.45 92 1008.8
20260903025351 58 71 0.0 0.0 0.00 0.45 0.45 92 1008.7
20260903024900 58 70 0.0 1.0 0.00 0.45 0.45 92 1008.6
20260903024339 58 217 0.0 7.0 0.00 0.45 0.45 92 1008.5
20260903023848 58 192 1.0 7.0 0.00 0.45 0.45 92 1008.5
20260903023325 58 182 0.0 3.0 0.00 0.45 0.45 92 1008.4
20260903022315 58 295 0.0 1.0 0.00 0.45 0.45 92 1008.4
20260903021824 58 334 0.0 2.0 0.01 0.45 0.45 92 1008.5
20260903021331 58 343 0.0 2.0 0.01 0.45 0.45 92 1008.4
20260903020813 58 302 0.0 2.0 0.02 0.45 0.45 92 1008.4
20260903020313 58 346 0.0 2.0 0.02 0.45 0.45 92 1008.3
20260903015822 58 182 0.0 0.0 0.02 0.45 0.45 92 1008.3
20260903015321 59 287 0.0 2.0 0.02 0.45 0.45 92 1008.2
20260903014824 59 14 0.0 2.0 0.02 0.45 0.45 92 1008.2
20260903014330 59 345 0.0 4.0 0.02 0.45 0.45 92 1008.1
20260903013812 59 307 1.0 4.0 0.02 0.45 0.45 92 1008.1
20260903013312 59 124 0.0 1.0 0.02 0.45 0.45 92 1008.1
20260903012821 59 75 0.0 1.0 0.03 0.45 0.45 92 1008.1
20260903012321 58 63 0.0 4.0 0.03 0.45 0.45 92 1007.9
20260903011814 58 291 0.0 4.0 0.02 0.44 0.44 92 1007.9
20260903011321 58 65 0.0 1.0 0.01 0.43 0.43 92 1007.9
20260903010823 59 239 0.0 0.0 0.01 0.43 0.43 92 1008.0
20260903010322 58 58 0.0 1.0 0.01 0.43 0.43 92 1007.9
20260903005829 58 158 0.0 2.0 0.02 0.43 0.43 92 1008.0
20260903005328 58 153 0.0 1.0 0.02 0.43 0.43 92 1007.9
20260903004838 58 289 0.0 3.0 0.03 0.43 0.43 92 1007.8
20260903004318 59 274 0.0 3.0 0.03 0.43 0.43 92 1007.8
20260903003820 58 296 0.0 3.0 0.03 0.43 0.43 92 1007.8
20260903003327 58 233 0.0 1.0 0.03 0.43 0.43 92 1007.7
20260903002830 58 161 0.0 1.0 0.02 0.42 0.42 92 1007.7
20260903002329 58 127 0.0 3.0 0.02 0.42 0.42 92 1007.6
20260903001818 58 276 0.0 3.0 0.02 0.42 0.42 92 1007.7
20260903001317 58 301 0.0 1.0 0.02 0.42 0.42 92 1007.6
20260903000818 58 316 0.0 1.0 0.02 0.42 0.42 92 1007.6
20260903000325 58 304 0.0 2.0 0.03 0.42 0.42 92 1007.6
20260902235824 58 2 0.0 3.0 0.03 0.41 0.41 92 1007.6
20260902235330 58 323 0.0 3.0 0.05 0.41 0.41 92 1007.5
20260902234813 58 340 0.0 1.0 0.05 0.40 0.40 92 1007.5
20260902234312 58 212 0.0 1.0 0.08 0.40 0.40 92 1007.4
20260902233823 58 304 0.0 3.0 0.08 0.40 0.40 92 1007.4
20260902233321 58 316 0.0 3.0 0.08 0.40 0.40 92 1007.5
20260902232823 58 303 0.0 3.0 0.09 0.40 0.40 92 1007.5
20260902232330 58 302 0.0 7.0 0.09 0.40 0.40 92 1007.4
20260902231832 58 347 0.0 7.0 0.09 0.40 0.40 92 1007.3
20260902231311 58 26 1.0 7.0 0.09 0.40 0.40 92 1007.2
20260902230821 58 274 0.0 5.0 0.09 0.40 0.40 92 1007.1
20260902230320 58 356 0.0 8.0 0.08 0.39 0.39 92 1007.1
20260902225936 58 305 1.0 6.0 0.07 0.38 0.38 92 1007.1
20260902225346 58 335 0.0 6.0 0.04 0.35 0.35 92 1007.1
20260902224835 58 126 0.0 6.0 0.04 0.35 0.35 92 1006.9
20260902224357 58 117 1.0 4.0 0.01 0.32 0.32 92 1007.0
20260902223840 58 4 0.0 6.0 0.01 0.32 0.32 92 1006.8
20260902223345 58 94 0.0 6.0 0.01 0.32 0.32 92 1006.9
20260902222854 58 315 1.0 6.0 0.00 0.31 0.31 92 1006.7
20260902222334 58 314 1.0 6.0 0.00 0.31 0.31 92 1006.7
20260902221823 58 303 0.0 11.0 0.00 0.31 0.31 92 1006.7
20260902221322 58 340 1.0 11.0 0.00 0.31 0.31 92 1006.7
20260902220832 58 215 0.0 7.0 0.01 0.31 0.31 92 1006.8
20260902220331 58 64 1.0 7.0 0.01 0.31 0.31 92 1006.6
20260902215813 58 193 0.0 10.0 0.01 0.31 0.31 92 1006.7
20260902215312 58 141 1.0 10.0 0.01 0.31 0.31 92 1006.6
20260902214823 57 348 0.0 4.0 0.01 0.31 0.31 92 1006.6
20260902214322 57 356 0.0 3.0 0.01 0.31 0.31 92 1006.7
20260902213832 57 56 0.0 6.0 0.01 0.31 0.31 92 1006.7
20260902213330 57 317 1.0 4.0 0.01 0.31 0.31 92 1006.6
20260902212818 57 40 0.0 2.0 0.01 0.31 0.31 92 1006.7
20260902212323 57 342 0.0 7.0 0.02 0.31 0.31 92 1006.6
20260902211825 57 347 1.0 7.0 0.02 0.31 0.31 92 1006.6
20260902211330 57 128 0.0 7.0 0.02 0.31 0.31 92 1006.7
20260902210819 57 76 0.0 8.0 0.01 0.30 0.30 92 1006.7
20260902210317 57 129 1.0 8.0 0.01 0.30 0.30 92 1006.7
20260902205825 57 181 0.0 4.0 0.01 0.30 0.30 92 1006.7
20260902205331 57 68 0.0 11.0 0.02 0.30 0.30 92 1006.8
20260902204834 57 129 1.0 11.0 0.03 0.30 0.30 92 1006.7
20260902204341 57 77 2.0 9.0 0.04 0.30 0.30 92 1006.6
20260902203850 57 93 4.0 9.0 0.05 0.30 0.30 92 1006.6
20260902203355 57 124 1.0 10.0 0.06 0.30 0.30 92 1006.7
20260902202838 57 143 3.0 9.0 0.07 0.30 0.30 92 1006.4
20260902202340 57 107 1.0 7.0 0.08 0.29 0.29 92 1006.4
20260902201850 57 77 0.0 10.0 0.10 0.29 0.29 92 1006.5
20260902201350 57 124 3.0 10.0 0.11 0.29 0.29 92 1006.4
20260902200320 57 97 0.0 7.0 0.13 0.29 0.29 92 1006.4
20260902195822 57 84 1.0 7.0 0.14 0.29 0.29 92 1006.3
20260902195328 57 141 1.0 8.0 0.14 0.28 0.28 92 1006.4
20260902194831 57 110 3.0 8.0 0.14 0.27 0.27 92 1006.5
20260902194330 57 86 1.0 7.0 0.14 0.26 0.26 92 1006.8
20260902193819 57 146 2.0 10.0 0.14 0.25 0.25 92 1006.6
20260902193317 57 127 3.0 10.0 0.13 0.24 0.24 92 1006.6
20260902192827 57 71 2.0 5.0 0.13 0.23 0.23 92 1006.7
20260902192333 57 122 1.0 5.0 0.11 0.21 0.21 92 1006.9
20260902191819 57 89 1.0 6.0 0.09 0.19 0.19 92 1007.0
20260902191318 57 120 1.0 8.0 0.08 0.17 0.17 92 1007.1
20260902190826 57 125 2.0 8.0 0.07 0.16 0.16 92 1007.1
20260902190313 57 98 2.0 11.0 0.08 0.16 0.16 92 1007.0
20260902185815 57 78 1.0 11.0 0.08 0.15 0.15 92 1006.9
20260902184832 57 78 1.0 8.0 0.07 0.13 0.13 91 1006.9
20260902184312 57 120 1.0 8.0 0.07 0.12 0.12 91 1006.9
20260902183815 57 121 1.0 4.0 0.07 0.11 0.11 91 1006.9
20260902183321 57 81 1.0 4.0 0.08 0.11 0.11 91 1006.9
20260902182824 57 136 0.0 3.0 0.07 0.10 0.10 91 1007.1
20260902182330 57 107 0.0 1.0 0.08 0.10 0.10 91 1007.1
20260902181813 57 198 0.0 5.0 0.08 0.10 0.10 91 1007.3
20260902181312 57 349 1.0 5.0 0.08 0.09 0.09 91 1007.5
20260902180821 57 188 0.0 1.0 0.08 0.09 0.09 91 1007.6
20260902180321 57 349 0.0 0.0 0.08 0.08 0.08 91 1007.7
20260902175823 57 8 0.0 7.0 0.07 0.07 0.07 91 1007.6
20260902175330 57 243 1.0 7.0 0.07 0.07 0.07 91 1007.6
20260902174832 57 334 0.0 5.0 0.06 0.06 0.06 90 1007.7
20260902174311 58 350 0.0 1.0 0.05 0.05 0.05 90 1007.7
20260902173821 58 13 0.0 0.0 0.04 0.04 0.04 90 1007.6
20260902173320 58 327 0.0 0.0 0.03 0.03 0.03 89 1007.6
20260902172830 58 342 0.0 0.0 0.03 0.03 0.03 88 1007.5
20260902172329 59 309 0.0 0.0 0.02 0.02 0.02 87 1007.4
20260902171832 59 29 0.0 0.0 0.02 0.02 0.02 87 1007.3
20260902171338 60 354 0.0 0.0 0.01 0.01 0.01 85 1007.2
20260902170821 60 354 0.0 4.0 0.01 0.01 0.01 83 1007.2
20260902170320 61 302 0.0 0.0 0.00 0.01 0.00 80 1007.3
20260902165831 61 355 0.0 0.0 0.00 0.01 0.00 80 1007.1
20260902165329 61 343 0.0 6.0 0.00 0.01 0.00 79 1007.1
20260902164839 61 195 1.0 6.0 0.00 0.01 0.00 76 1007.1
20260902164318 62 32 1.0 3.0 0.00 0.01 0.00 75 1007.0
20260902163819 62 177 0.0 4.0 0.00 0.01 0.00 75 1007.0
20260902163318 62 145 0.0 3.0 0.00 0.01 0.00 75 1007.0
20260902162827 62 360 0.0 3.0 0.00 0.01 0.00 75 1007.0
20260902161814 61 65 0.0 0.0 0.00 0.01 0.00 78 1007.0
20260902161321 61 65 0.0 0.0 0.00 0.01 0.00 77 1007.0
20260902160823 61 65 0.0 0.0 0.00 0.01 0.00 78 1007.0
20260902160331 61 65 0.0 0.0 0.00 0.02 0.00 79 1007.0
20260902155813 61 93 0.0 0.0 0.00 0.02 0.00 80 1007.2
20260902155312 61 92 0.0 0.0 0.00 0.02 0.00 79 1007.2
20260902154815 61 103 0.0 0.0 0.00 0.02 0.00 79 1007.2
20260902154321 60 84 0.0 3.0 0.00 0.02 0.00 79 1007.2
20260902153823 60 313 0.0 3.0 0.00 0.02 0.00 80 1007.2
20260902153330 60 99 0.0 0.0 0.00 0.02 0.00 81 1007.3
20260902152812 60 145 0.0 0.0 0.00 0.02 0.00 81 1007.4
20260902152312 59 93 0.0 2.0 0.00 0.02 0.00 83 1007.4
20260902151821 59 91 0.0 2.0 0.00 0.02 0.00 82 1007.5
20260902151320 59 94 0.0 3.0 0.00 0.02 0.00 82 1007.5
20260902150335 59 133 0.0 0.0 0.00 0.02 0.00 83 1007.6
20260902145817 59 139 0.0 0.0 0.00 0.02 0.00 83 1007.7
20260902145316 59 115 0.0 0.0 0.00 0.02 0.00 84 1007.7
20260902144825 58 107 0.0 0.0 0.00 0.02 0.00 84 1007.8
20260902144324 58 99 0.0 0.0 0.00 0.02 0.00 84 1007.8
20260902143828 58 115 0.0 0.0 0.00 0.02 0.00 84 1007.9
20260902143421 59 110 0.0 0.0 0.00 0.02 0.00 84 1007.9
20260902142818 58 141 0.0 0.0 0.00 0.02 0.00 84 1007.9
20260902142316 58 134 0.0 0.0 0.00 0.02 0.00 84 1007.9
20260902141826 58 121 0.0 0.0 0.00 0.02 0.00 84 1008.0
20260902141324 58 106 0.0 0.0 0.00 0.02 0.00 84 1008.1
20260902140826 58 120 0.0 0.0 0.00 0.02 0.00 85 1008.1
20260902140333 58 133 0.0 0.0 0.00 0.02 0.00 85 1008.2
20260902135841 58 78 0.0 1.0 0.00 0.02 0.00 85 1008.2
20260902135339 58 101 0.0 1.0 0.00 0.02 0.00 85 1008.3
20260902134847 58 122 0.0 0.0 0.00 0.02 0.00 85 1008.4
20260902134334 58 109 0.0 0.0 0.00 0.02 0.00 85 1008.4
20260902133834 58 109 0.0 0.0 0.00 0.02 0.00 85 1008.5
20260902133339 58 109 0.0 0.0 0.00 0.02 0.00 85 1008.5
20260902132848 58 109 0.0 0.0 0.00 0.02 0.00 84 1008.6
20260902132326 58 100 0.0 0.0 0.00 0.02 0.00 84 1008.6
20260902131835 58 84 0.0 0.0 0.00 0.02 0.00 84 1008.7
20260902131314 58 105 0.0 0.0 0.00 0.02 0.00 84 1008.7
20260902130817 58 118 0.0 0.0 0.00 0.02 0.00 84 1008.9
20260902130323 58 118 0.0 2.0 0.00 0.02 0.00 83 1008.9
20260902125826 59 135 0.0 2.0 0.00 0.02 0.00 83 1009.0
20260902125325 58 103 0.0 2.0 0.00 0.02 0.00 83 1009.1
20260902124816 58 124 0.0 4.0 0.00 0.02 0.00 84 1009.1
20260902124314 58 104 1.0 4.0 0.00 0.02 0.00 84 1009.2
20260902123816 58 120 0.0 0.0 0.00 0.02 0.00 84 1009.2
20260902123322 58 82 0.0 0.0 0.00 0.02 0.00 84 1009.3
20260902122825 58 94 0.0 0.0 0.00 0.02 0.00 84 1009.4
20260902122338 58 72 0.0 2.0 0.00 0.02 0.00 84 1009.5
20260902121820 58 24 0.0 2.0 0.00 0.02 0.00 84 1009.5
20260902121320 58 39 0.0 0.0 0.00 0.02 0.00 84 1009.7
20260902120822 58 49 0.0 0.0 0.00 0.02 0.00 84 1009.7
20260902120328 58 111 0.0 0.0 0.00 0.02 0.00 84 1009.9
20260902115830 58 83 0.0 0.0 0.00 0.02 0.00 85 1009.8
20260902115337 58 83 0.0 0.0 0.00 0.02 0.00 84 1009.9
20260902114826 58 111 0.0 0.0 0.00 0.02 0.00 85 1010.0
20260902114325 58 111 0.0 1.0 0.00 0.02 0.00 85 1010.0
20260902113835 58 75 0.0 1.0 0.00 0.02 0.00 85 1010.1
20260902113314 58 71 0.0 0.0 0.00 0.02 0.00 86 1010.1
20260902112816 58 71 0.0 0.0 0.00 0.02 0.00 86 1010.2
20260902112316 58 71 0.0 0.0 0.00 0.02 0.00 86 1010.1
20260902111852 58 71 0.0 0.0 0.00 0.02 0.00 86 1010.2
20260902111339 58 71 0.0 0.0 0.00 0.02 0.00 86 1010.3
20260902110841 58 71 0.0 0.0 0.00 0.02 0.00 86 1010.3
20260902110347 58 71 0.0 0.0 0.00 0.02 0.00 87 1010.3
20260902105836 58 71 0.0 0.0 0.00 0.02 0.00 86 1010.4
20260902105335 58 71 0.0 0.0 0.00 0.02 0.00 86 1010.4
20260902104845 58 71 0.0 0.0 0.00 0.02 0.00 86 1010.4
20260902104351 58 71 0.0 0.0 0.00 0.02 0.00 86 1010.5
20260902103900 58 71 0.0 0.0 0.00 0.02 0.00 87 1010.5
20260902102819 58 70 0.0 0.0 0.00 0.02 0.00 87 1010.5
20260902102325 58 340 0.0 0.0 0.00 0.02 0.00 86 1010.5
20260902101827 58 76 0.0 0.0 0.00 0.02 0.00 86 1010.6
20260902101326 58 76 0.0 0.0 0.00 0.02 0.00 86 1010.6
20260902100815 58 76 0.0 0.0 0.00 0.02 0.00 86 1010.7
20260902100314 58 141 0.0 0.0 0.00 0.02 0.00 86 1010.6
20260902095816 58 92 0.0 2.0 0.00 0.02 0.00 86 1010.6
20260902095321 58 115 0.0 1.0 0.00 0.02 0.00 86 1010.6
20260902094823 58 137 0.0 1.0 0.00 0.02 0.00 86 1010.7
20260902094351 58 122 0.0 1.0 0.00 0.02 0.00 87 1010.8
20260902093900 58 130 0.0 1.0 0.00 0.02 0.00 87 1010.7
20260902093338 58 118 0.0 3.0 0.00 0.02 0.00 87 1010.8
20260902092847 58 127 0.0 3.0 0.00 0.02 0.00 87 1010.9
20260902092334 58 132 0.0 3.0 0.00 0.02 0.00 88 1010.9
20260902091845 58 192 0.0 0.0 0.00 0.02 0.00 88 1011.0
20260902091351 58 329 0.0 1.0 0.00 0.02 0.00 88 1011.0
20260902090834 57 347 0.0 1.0 0.00 0.02 0.00 89 1011.0
20260902090319 57 346 0.0 0.0 0.00 0.02 0.00 90 1011.2
20260902085821 57 25 0.0 0.0 0.00 0.02 0.00 90 1011.2
20260902085321 57 33 0.0 0.0 0.00 0.02 0.00 90 1011.3
20260902084830 57 4 0.0 0.0 0.00 0.02 0.00 90 1011.3
20260902084330 57 23 0.0 0.0 0.00 0.02 0.00 90 1011.4
20260902083839 57 23 0.0 0.0 0.00 0.02 0.00 89 1011.3
20260902083319 57 23 0.0 0.0 0.00 0.02 0.00 89 1011.4
20260902082821 58 23 0.0 0.0 0.00 0.02 0.00 89 1011.3
20260902082327 58 333 0.0 0.0 0.00 0.02 0.00 89 1011.3
20260902081814 58 9 0.0 0.0 0.00 0.02 0.00 89 1011.4
20260902081313 58 341 0.0 1.0 0.00 0.02 0.00 89 1011.3
20260902080822 58 323 0.0 1.0 0.00 0.02 0.00 89 1011.3
20260902080322 58 148 0.0 3.0 0.00 0.02 0.00 89 1011.3
20260902075824 58 150 0.0 3.0 0.00 0.02 0.00 89 1011.3
20260902075331 58 304 0.0 0.0 0.00 0.02 0.00 89 1011.3
20260902074813 58 304 0.0 0.0 0.00 0.02 0.00 89 1011.3
20260902074316 58 304 0.0 0.0 0.00 0.02 0.00 89 1011.4
20260902073822 59 304 0.0 0.0 0.00 0.02 0.00 88 1011.4
20260902073322 59 304 0.0 0.0 0.00 0.02 0.00 88 1011.5
20260902072832 59 356 0.0 4.0 0.00 0.02 0.00 87 1011.6
20260902072312 59 231 0.0 4.0 0.00 0.02 0.00 86 1011.6
20260902071821 60 153 0.0 5.0 0.00 0.02 0.00 85 1011.7
20260902071328 60 143 0.0 5.0 0.00 0.02 0.00 84 1011.8
20260902070818 60 307 0.0 0.0 0.00 0.02 0.00 84 1011.8
20260902070316 60 306 0.0 1.0 0.00 0.02 0.02 84 1011.8
20260902065819 60 306 0.0 1.0 0.00 0.02 0.02 84 1011.9
20260902065325 59 321 0.0 0.0 0.00 0.02 0.02 84 1011.9
20260902064827 59 321 0.0 0.0 0.00 0.02 0.02 84 1012.0
20260902064314 59 321 0.0 0.0 0.00 0.02 0.02 84 1012.0
20260902063816 59 321 0.0 0.0 0.00 0.02 0.02 84 1012.0
20260902063321 59 75 0.0 0.0 0.00 0.02 0.02 84 1012.0
20260902062829 59 298 0.0 0.0 0.00 0.02 0.02 83 1012.0
20260902062331 59 322 0.0 0.0 0.00 0.02 0.02 83 1011.9
20260902061813 60 327 0.0 0.0 0.00 0.02 0.02 82 1011.8
20260902060828 60 327 0.0 0.0 0.00 0.02 0.02 82 1011.8
20260902060334 60 122 0.0 0.0 0.00 0.02 0.02 82 1011.9
20260902055816 60 171 0.0 0.0 0.00 0.02 0.02 82 1012.0
20260902055314 60 4 0.0 0.0 0.00 0.02 0.02 82 1012.1
20260902054824 60 1 0.0 0.0 0.00 0.02 0.02 82 1012.1
20260902054323 60 117 0.0 5.0 0.00 0.02 0.02 82 1012.1
20260902053826 61 70 0.0 5.0 0.00 0.02 0.02 81 1012.1
20260902053332 61 79 0.0 0.0 0.00 0.02 0.02 81 1012.2
20260902052819 61 79 0.0 0.0 0.00 0.02 0.02 81 1012.3
20260902052319 61 193 0.0 0.0 0.00 0.02 0.02 82 1012.2
20260902051827 61 324 0.0 0.0 0.00 0.02 0.02 81 1012.2
20260902051327 61 324 0.0 0.0 0.00 0.02 0.02 81 1012.2
20260902050836 61 4 0.0 0.0 0.00 0.02 0.02 81 1012.2
20260902050316 61 314 0.0 0.0 0.00 0.02 0.02 82 1012.1
20260902045818 61 311 0.0 0.0 0.00 0.02 0.02 81 1012.1
20260902045318 61 146 0.0 0.0 0.00 0.02 0.02 81 1012.2
20260902044827 61 13 0.0 0.0 0.00 0.02 0.02 81 1012.2
20260902044326 61 291 0.0 2.0 0.00 0.02 0.02 81 1012.2
20260902043836 61 255 0.0 2.0 0.00 0.02 0.02 81 1012.2
20260902043334 61 352 0.0 0.0 0.00 0.02 0.02 81 1012.2
20260902042839 61 303 0.0 0.0 0.00 0.02 0.02 81 1012.1
20260902042344 61 316 0.0 0.0 0.00 0.02 0.02 80 1012.2
20260902041834 61 314 0.0 0.0 0.00 0.02 0.02 80 1012.1
20260902041340 61 147 0.0 0.0 0.00 0.02 0.02 80 1012.1